Waarnemingen

Advertentie
Mijn weer
Falsterbo, Zweden (2616): temperatuur & dauwpunt: 19.06.2018 15:00:00 - 25.06.2018 15:00:00 (CEST)Falsterbo, Zweden (2616): windsnelheid: 19.06.2018 15:00:00 - 25.06.2018 15:00:00 (CEST)Falsterbo, Zweden (2616): windrichting: 19.06.2018 15:00:00 - 25.06.2018 15:00:00 (CEST)Falsterbo, Zweden (2616): luchtdruk: 19.06.2018 15:00:00 - 25.06.2018 15:00:00 (CEST)Falsterbo, Zweden (2616): zicht: 19.06.2018 15:00:00 - 25.06.2018 15:00:00 (CEST)
Datum & Tijd tt [°C] td [°C] ff [km/u] ff [kn] dd ppp [hPa] vv [km]
25.06.2018 15:00:00 - - - - - - -
25.06.2018 14:00:00 20,4 14,7 14 8 ZW 1018,3 40
25.06.2018 13:00:00 - - - - - - -
25.06.2018 12:00:00 - - - - - - -
25.06.2018 11:00:00 18,1 14,2 18 10 W 1018,0 35
25.06.2018 10:00:00 - - - - - - -
25.06.2018 09:00:00 - - - - - - -
25.06.2018 08:00:00 17,4 14,1 14 8 NW 1017,2 22
25.06.2018 07:00:00 - - - - - - -
25.06.2018 06:00:00 - - - - - - -
25.06.2018 05:00:00 - - - - - - -
25.06.2018 04:00:00 - - - - - - -
25.06.2018 03:00:00 - - - - - - -
25.06.2018 02:00:00 - - - - - - -
25.06.2018 01:00:00 - - - - - - -
25.06.2018 00:00:00 - - - - - - -
24.06.2018 23:00:00 - - - - - - -
24.06.2018 22:00:00 - - - - - - -
24.06.2018 21:00:00 - - - - - - -
24.06.2018 20:00:00 17,9 13,2 18 10 ZW 1016,0 40
24.06.2018 19:00:00 - - - - - - -
24.06.2018 18:00:00 - - - - - - -
24.06.2018 17:00:00 19,8 10,8 18 10 ZW 1016,2 40
24.06.2018 16:00:00 - - - - - - -
24.06.2018 15:00:00 - - - - - - -
24.06.2018 14:00:00 18,5 10,1 11 6 WZW 1016,7 40
24.06.2018 13:00:00 - - - - - - -
24.06.2018 12:00:00 - - - - - - -
24.06.2018 11:00:00 17,4 10,5 7 4 W 1016,5 45
24.06.2018 10:00:00 - - - - - - -
24.06.2018 09:00:00 - - - - - - -
24.06.2018 08:00:00 15,1 10,7 14 8 NW 1015,9 30
24.06.2018 07:00:00 - - - - - - -
24.06.2018 06:00:00 - - - - - - -
24.06.2018 05:00:00 - - - - - - -
24.06.2018 04:00:00 - - - - - - -
24.06.2018 03:00:00 - - - - - - -
24.06.2018 02:00:00 - - - - - - -
24.06.2018 01:00:00 - - - - - - -
24.06.2018 00:00:00 - - - - - - -
23.06.2018 23:00:00 - - - - - - -
23.06.2018 22:00:00 - - - - - - -
23.06.2018 21:00:00 - - - - - - -
23.06.2018 20:00:00 17,0 10,8 29 16 NW 1015,3 40
23.06.2018 19:00:00 - - - - - - -
23.06.2018 18:00:00 - - - - - - -
23.06.2018 17:00:00 18,8 9,6 25 14 NW 1015,6 40
23.06.2018 16:00:00 - - - - - - -
23.06.2018 15:00:00 - - - - - - -
23.06.2018 14:00:00 16,6 9,3 29 16 NW 1015,8 40
23.06.2018 13:00:00 - - - - - - -
23.06.2018 12:00:00 - - - - - - -
23.06.2018 11:00:00 16,1 11,1 36 19 WNW 1015,0 30
23.06.2018 10:00:00 - - - - - - -
23.06.2018 09:00:00 - - - - - - -
23.06.2018 08:00:00 13,8 9,4 32 18 WNW 1014,2 23
23.06.2018 07:00:00 - - - - - - -
23.06.2018 06:00:00 - - - - - - -
23.06.2018 05:00:00 - - - - - - -
23.06.2018 04:00:00 - - - - - - -
23.06.2018 03:00:00 - - - - - - -
23.06.2018 02:00:00 - - - - - - -
23.06.2018 01:00:00 - - - - - - -
23.06.2018 00:00:00 - - - - - - -
22.06.2018 23:00:00 - - - - - - -
22.06.2018 22:00:00 - - - - - - -
22.06.2018 21:00:00 - - - - - - -
22.06.2018 20:00:00 15,4 8,6 29 16 W 1012,8 35
22.06.2018 19:00:00 - - - - - - -
22.06.2018 18:00:00 - - - - - - -
22.06.2018 17:00:00 17,5 9,1 22 12 WNW 1012,7 35
22.06.2018 16:00:00 - - - - - - -
22.06.2018 15:00:00 - - - - - - -
22.06.2018 14:00:00 18,5 9,3 32 18 WNW 1012,8 40
22.06.2018 13:00:00 - - - - - - -
22.06.2018 12:00:00 - - - - - - -
22.06.2018 11:00:00 16,2 9,4 29 16 WNW 1012,1 40
22.06.2018 10:00:00 - - - - - - -
22.06.2018 09:00:00 - - - - - - -
22.06.2018 08:00:00 12,7 10,8 40 21 WNW 1010,2 35
22.06.2018 07:00:00 - - - - - - -
22.06.2018 06:00:00 - - - - - - -
22.06.2018 05:00:00 - - - - - - -
22.06.2018 04:00:00 - - - - - - -
22.06.2018 03:00:00 - - - - - - -
22.06.2018 02:00:00 - - - - - - -
22.06.2018 01:00:00 - - - - - - -
22.06.2018 00:00:00 - - - - - - -
21.06.2018 23:00:00 - - - - - - -
21.06.2018 22:00:00 - - - - - - -
21.06.2018 21:00:00 - - - - - - -
21.06.2018 20:00:00 15,1 6,1 50 27 WNW 1008,1 45
21.06.2018 19:00:00 - - - - - - -
21.06.2018 18:00:00 - - - - - - -
21.06.2018 17:00:00 15,4 6,1 40 21 WNW 1006,6 45
21.06.2018 16:00:00 - - - - - - -
21.06.2018 15:00:00 - - - - - - -
21.06.2018 14:00:00 15,8 7,8 32 18 WNW 1006,3 60
21.06.2018 13:00:00 - - - - - - -
21.06.2018 12:00:00 - - - - - - -
21.06.2018 11:00:00 14,2 7,9 36 19 WNW 1007,3 60
21.06.2018 10:00:00 - - - - - - -
21.06.2018 09:00:00 - - - - - - -
21.06.2018 08:00:00 14,2 8,6 32 18 WNW 1008,1 60
21.06.2018 07:00:00 - - - - - - -
21.06.2018 06:00:00 - - - - - - -
21.06.2018 05:00:00 - - - - - - -
21.06.2018 04:00:00 - - - - - - -
21.06.2018 03:00:00 - - - - - - -
21.06.2018 02:00:00 - - - - - - -
21.06.2018 01:00:00 - - - - - - -
21.06.2018 00:00:00 - - - - - - -
20.06.2018 23:00:00 - - - - - - -
20.06.2018 22:00:00 - - - - - - -
20.06.2018 21:00:00 - - - - - - -
20.06.2018 20:00:00 20,5 15,9 22 12 WZW 1013,5 28
20.06.2018 19:00:00 - - - - - - -
20.06.2018 18:00:00 - - - - - - -
20.06.2018 17:00:00 21,0 15,8 25 14 ZZW 1015,3 30
20.06.2018 16:00:00 - - - - - - -
20.06.2018 15:00:00 - - - - - - -
20.06.2018 14:00:00 21,9 15,5 32 18 ZZW 1016,7 22
20.06.2018 13:00:00 - - - - - - -
20.06.2018 12:00:00 - - - - - - -
20.06.2018 11:00:00 18,7 12,7 29 16 ZZW 1018,9 23
20.06.2018 10:00:00 - - - - - - -
20.06.2018 09:00:00 - - - - - - -
20.06.2018 08:00:00 14,9 9,3 22 12 WZW 1020,4 22
20.06.2018 07:00:00 - - - - - - -
20.06.2018 06:00:00 - - - - - - -
20.06.2018 05:00:00 - - - - - - -
20.06.2018 04:00:00 - - - - - - -
20.06.2018 03:00:00 - - - - - - -
20.06.2018 02:00:00 - - - - - - -
20.06.2018 01:00:00 - - - - - - -
20.06.2018 00:00:00 - - - - - - -
19.06.2018 23:00:00 - - - - - - -
19.06.2018 22:00:00 - - - - - - -
19.06.2018 21:00:00 - - - - - - -
19.06.2018 20:00:00 18,6 10,2 36 19 WNW 1018,9 23
19.06.2018 19:00:00 - - - - - - -
19.06.2018 18:00:00 - - - - - - -
19.06.2018 17:00:00 20,3 11,2 36 19 WNW 1017,8 35
19.06.2018 16:00:00 - - - - - - -
19.06.2018 15:00:00 - - - - - - -

tt = temperatuur
td = dauwpunt
ff = windsnelheid
dd = windrichting
ppp = luchtdruk
vv = zicht

Weerstations in de omgeving